CAPE
1061 1203 1386 1441 1461 1605 1625 1624 1567 1525 1508 1563 1555 1636 1596 1687 1779 1878 1939 1960 2006 2049 1986 1767 1515 1748 1855 1673 1598 1516 1448 1262 1040 959 984 983 971 979 856 1020 995 1224 1107 1047 999 803 906 1027 987 990 852 891 984 1050 969 1125 1096 1118 1085 991 964 856 779 789 830 737 583 478 442 250 39 26 19 52 29 28 34 26 19 27 26 34 29 32 37
1116 1228 1420 1560 1648 1619 1632 1617 1574 1572 1656 1613 1525 1539 1682 1705 1648 1648 1764 1606 1799 1831 1855 1817 1786 1782 1663 1548 1484 1584 1551 1457 1405 1188 875 888 1010 1011 996 949 859 896 996 900 1124 1121 1136 1105 1119 1095 1063 944 923 955 1014 1214 1140 1091 1009 1087 993 1005 931 928 868 778 522 255 186 40 10 7 8 33 31 64 117 39 28 32 35 30 36 39 44
1161 1392 1439 1633 1602 1614 1558 1578 1642 1610 1594 1462 1380 1497 1621 1667 1704 1721 1622 1509 1592 1757 1813 1658 1569 1585 1628 1541 1508 1534 1298 922 820 762 740 614 678 863 908 793 684 620 680 1221 1243 1238 1262 1264 1183 1220 1153 1092 1076 1026 1121 1302 1022 1018 854 1265 1170 977 937 865 710 333 195 145 78 36 21 6 3 33 43 96 44 30 28 33 30 45 12 22 20
1307 1369 1455 1466 1590 1602 1540 1612 1624 1594 1597 1574 1492 1518 1620 1646 1686 1647 1560 1498 1505 1498 1782 1738 1657 1694 1692 1635 1590 1507 1235 1038 783 683 632 692 886 959 1000 1011 884 613 1169 1319 1386 1401 1285 1247 1152 995 1031 1140 1327 1374 1360 1418 1227 1213 1244 1178 1025 957 858 743 476 335 245 116 50 53 160 5 9 26 12 6 6 7 13 10 12 14 10 14 17
1231 1115 1346 1446 1491 1674 1650 1668 1656 1558 1525 1548 1493 1418 1557 1574 1579 1555 1565 1523 1449 1510 1775 1812 1895 1778 1610 1467 1390 1356 1465 956 792 688 564 423 671 1414 1168 1130 1025 867 906 1120 1340 1309 1200 1092 1058 944 1165 1266 1556 1514 1440 1439 1392 1357 1228 1204 1110 1010 864 798 450 166 114 56 33 27 0 0 3 7 4 5 4 3 2 0 1 10 12 12 12
1224 1308 1349 1477 1523 1557 1725 1632 1544 1452 1466 1442 1435 1455 1453 1548 1591 1575 1470 1511 1573 1673 1802 1855 1923 1660 1697 1655 1543 1544 1512 1069 609 826 1452 968 1396 1395 1339 1220 1129 1124 1140 1108 1136 1174 1306 1184 1085 1260 1350 1400 1358 1255 1184 1140 1063 999 1068 1047 1079 1035 917 909 525 168 68 47 32 0 0 0 0 0 0 0 0 0 0 0 0 4 5 8 9
1287 1319 1289 1380 1447 1610 1680 1558 1495 1430 1335 1359 1398 1362 1380 1494 1537 1619 1559 1631 1736 1724 1672 1722 1563 1594 1661 1679 1597 1602 1432 1435 1209 1159 1423 1326 1264 1334 1281 1330 1298 1196 1334 1528 1488 1530 1309 1132 1281 1359 1231 1166 1055 987 872 732 742 747 798 770 830 864 794 907 816 373 111 62 0 0 0 0 0 0 0 0 0 0 0 0 1 6 9 6 0
1092 1254 1328 1440 1463 1597 1575 1562 1491 1431 1355 1246 1427 1440 1326 1240 1363 1469 1614 1709 1731 1907 1797 1655 1584 1625 1801 1637 1688 1655 1520 1280 1172 1173 1258 1203 1133 1130 1099 1184 1508 1392 1380 1242 1294 1347 1107 1094 1310 1283 1257 1307 1307 1218 1184 1158 1095 1140 982 1018 590 678 600 562 646 980 771 581 582 191 0 0 0 0 18 2 0 0 6 6 10 9 6 3 0
1239 1276 1331 1373 1412 1696 1589 1529 1542 1476 1419 1286 1244 1271 1472 1475 1459 1504 1569 1521 1566 1629 1702 1692 1628 1716 1811 1761 1690 1618 1504 1233 1136 1119 1177 1184 1182 1198 1229 1188 1313 1250 1241 1184 1250 1375 1251 1202 1270 1487 1506 1374 1385 1298 1126 1079 1103 1117 1237 1315 1227 1160 1088 1084 955 862 791 774 727 557 68 0 0 2 20 1 0 0 16 86 62 6 2 0 0
1224 1223 1210 1204 1351 1512 1562 1489 1561 1612 1482 1450 1472 1436 1522 1670 1701 1609 1631 1699 1654 1707 1722 1740 1685 1813 1508 1791 1678 1648 1544 1333 1190 1162 1222 1120 1163 1341 1271 1086 1106 976 1211 1186 1099 1305 1297 1122 1114 1180 1205 1197 1248 1330 1297 1364 1477 1624 1583 1564 1588 1469 1522 1621 1540 1522 1442 999 823 576 0 92 0 2 47 1 0 0 0 21 156 9 2 0 0
1157 1207 1310 1351 1453 1534 1521 1354 1491 1534 1554 1538 1497 1619 1671 1701 1811 1696 1631 1598 1480 1498 1485 1622 1381 1276 1361 1836 1744 1721 1642 1414 1300 1261 1254 1298 1324 1224 1166 1162 1154 995 1240 1352 955 1201 1077 1088 1074 1205 1284 1258 1383 1341 1510 1577 1728 1780 1838 1805 1707 1703 1735 1785 1760 925 552 30 537 336 196 162 0 1 142 42 4 0 0 0 0 0 0 0 0
1158 1158 1260 1579 1374 1394 1210 1406 1332 1407 1434 1254 1704 1511 1566 1597 1606 1676 1558 1452 1384 1436 1573 1434 1179 1188 1410 1521 1788 1704 1644 1447 1299 1291 1269 1344 1402 1308 1271 1228 1123 1123 1220 1324 1253 1178 1066 1257 1267 1168 1122 1107 1212 1349 1431 1548 1749 1702 1763 1692 1650 1771 1850 1799 1265 947 502 0 0 15 116 97 0 57 130 38 0 0 0 1 0 0 0 0 0
1140 1092 1166 1145 1346 1451 1209 1412 1279 1296 1206 1203 1368 1552 1629 1625 1578 1494 1544 1463 1443 1400 1346 1454 1480 1250 1196 1400 1607 1754 1689 1458 1190 1251 1294 1308 1367 1459 1324 1311 1300 1470 1464 1281 1151 1170 1346 1286 1338 1431 1214 1151 1150 1261 1356 1580 1563 1685 1751 1901 1909 1982 1854 1701 969 599 580 42 113 156 0 0 0 192 124 68 3 0 0 1 0 0 0 0 0
1161 1086 1088 1202 1378 1504 1369 1224 1355 1506 1465 1332 1294 1394 1379 1492 1495 1566 1454 1401 1294 1241 1230 1279 1415 1305 1252 1404 1689 1666 1640 1478 1285 1290 1250 1175 1347 1375 1373 1396 1497 1562 1390 1300 1203 1402 1413 1382 1487 1448 1326 1274 1194 1104 1240 1316 1575 1397 1724 1922 2032 2016 1980 1460 917 165 171 51 46 0 0 0 1 159 151 55 2 0 0 0 1 1 0 0 0
1117 1122 1150 1166 1090 1284 1312 1281 1298 1263 1260 1356 1353 1240 1314 1300 1213 1202 1190 1169 1133 1143 1147 1173 1264 1225 1355 1424 1501 1528 1515 1410 1287 1312 1260 1147 1180 1294 1293 1296 1299 1300 1290 1285 1404 1321 1425 1526 1525 1450 1354 1363 1276 1290 1284 1239 1418 1449 1735 1929 1998 1952 1879 1690 764 146 34 375 110 4 0 0 339 240 171 58 0 0 0 0 2 2 2 1 0
1164 1077 1061 1009 1023 1067 1146 1213 1206 1176 1208 1304 1265 1204 1190 1186 1225 1174 1109 1085 1073 1078 1133 1178 1293 1384 1446 1486 1554 1472 1411 1466 1461 1419 1302 1249 1134 1168 1242 1271 1250 1196 1237 1222 1235 1143 1228 1395 1300 1351 1411 1351 1304 1236 1338 1344 1319 1421 1544 1910 2026 2117 2158 2174 1155 575 612 53 22 5 0 70 382 276 158 51 0 0 0 1 2 2 1 0 0
1417 1268 988 947 980 920 1014 916 921 1209 1194 1483 1412 1251 1173 1220 1263 1265 1133 1121 1024 1054 1174 1362 1443 1510 1508 1485 1554 1450 1282 1338 1421 1362 1254 1273 1241 1113 1126 1161 1214 1200 1081 1163 1163 1154 1132 1317 1339 1274 1480 1406 1350 1335 1395 1337 1441 1500 1595 1698 1938 2274 2350 2435 1034 643 763 165 60 6 0 129 470 344 172 27 0 0 0 1 3 2 0 2 2
998 941 872 915 970 952 940 932 948 944 1001 1307 1011 1309 1419 1479 1417 1342 1244 1223 1179 1100 1095 1279 1334 1472 1520 1445 1589 1586 1378 1300 1289 1331 1329 1256 1188 1118 1072 1049 1055 1150 1119 1137 1167 1129 1276 1187 1211 1238 1298 1399 1408 1279 1271 1391 1533 1614 1634 1628 1897 2115 2304 1603 779 622 716 360 37 53 50 489 592 402 249 52 0 0 0 1 7 3 0 0 0
1002 978 914 960 976 981 971 948 974 962 979 1004 782 994 1266 1221 1153 1311 1339 1294 1276 1259 1326 1290 1302 1407 1482 1405 1363 1566 1389 1107 1240 1220 1370 1393 1288 1198 1098 1003 1014 1044 1176 1035 1279 1069 1261 1185 1110 1303 1306 1494 1590 1555 1528 1551 1475 1439 1371 1391 1407 1742 1873 709 676 584 406 199 26 62 40 647 459 391 357 124 26 5 0 0 1 3 0 0 0
853 910 904 900 890 864 892 903 1020 1013 962 817 809 787 1150 1244 1173 1277 1251 1300 1409 1408 1385 1511 1427 1431 1402 1485 1582 1388 1199 1590 1615 1528 1152 1197 1287 1192 1233 1155 1166 1020 1120 1004 1042 1134 1228 1199 1323 1383 1525 1558 1511 1547 1500 1443 1270 1239 1400 1530 1441 1833 696 676 700 519 350 154 158 111 337 728 472 438 420 190 47 8 1 0 0 1 1 0 1
966 953 913 848 836 894 819 846 994 987 980 972 900 961 1347 1244 1120 1093 1157 1325 1390 1406 1443 1267 877 1085 1161 1264 1228 927 540 451 734 1395 1228 968 1038 1159 1078 1249 1178 1236 1118 1104 1038 1106 1066 1270 1254 1252 1368 1366 1444 1435 1400 1288 1143 783 946 1462 1608 855 348 289 488 479 414 666 456 60 686 763 465 355 260 98 8 0 8 1 0 0 0 0 0
900 889 864 852 921 955 917 923 987 992 970 962 871 1004 1186 971 643 553 852 982 996 952 957 865 1073 464 1183 857 764 930 726 546 767 1798 1169 1447 1689 1420 920 1245 1008 1188 1066 1106 1134 1191 1052 1006 993 1202 1249 1286 1320 1175 885 686 603 484 1062 1121 671 167 186 152 402 308 371 412 622 278 1093 859 559 425 292 149 73 11 10 14 7 0 0 0 0
788 782 730 763 813 948 897 943 897 960 986 914 945 902 908 817 722 686 767 829 1005 1021 576 963 472 586 655 750 899 874 864 809 742 1600 1435 1694 1686 1618 1327 1247 1232 1309 1170 1159 1137 1155 1301 1333 1367 1285 1333 1572 1407 892 598 360 10 546 623 220 73 92 218 276 510 282 432 467 640 1116 1293 992 767 637 455 351 238 20 7 26 15 1 0 0 0
611 814 923 879 788 730 909 894 884 946 964 759 678 745 656 667 671 533 569 528 575 744 688 621 672 403 389 514 287 914 602 430 1220 1242 1780 1726 1510 1670 1852 1453 1427 1526 1522 1411 1510 1431 1442 1444 1504 1624 1811 1322 1035 795 533 260 174 270 408 212 105 198 328 606 711 459 252 730 700 1489 1413 1129 961 819 621 502 455 90 4 89 10 43 12 0 0
643 871 1091 965 709 587 816 832 793 920 914 745 730 699 444 630 741 376 651 525 716 684 716 755 778 424 378 509 425 786 417 511 400 344 276 588 702 1006 1364 1568 1607 1576 2044 1793 1612 1470 1228 1267 1333 1063 628 726 846 732 797 812 779 595 288 454 455 427 617 661 682 460 476 264 750 1598 1519 1286 1132 926 577 410 505 113 6 17 138 124 62 16 3
839 860 725 664 661 562 565 644 667 698 692 632 653 957 797 903 779 791 728 624 703 583 337 243 389 523 480 401 828 396 241 410 320 282 270 261 502 506 878 1573 1654 1664 1875 1902 1773 1607 1472 1355 1062 1018 1084 1394 1515 1100 836 1489 580 347 524 680 728 838 793 618 339 427 364 526 284 1370 1520 1437 1217 804 663 316 270 143 71 71 31 164 152 126 94
938 855 799 756 644 594 510 440 480 480 544 484 605 782 937 960 846 833 848 429 504 599 573 415 270 136 90 230 620 38 11 22 21 7 25 214 300 438 482 692 1181 1400 1382 1509 1509 1476 1404 1035 492 658 723 720 553 665 743 531 575 499 574 487 481 584 457 228 218 293 356 388 646 869 1445 1196 1008 749 517 249 357 558 451 441 735 1160 651 372 270
985 985 1005 1054 903 680 578 526 569 551 514 546 614 558 955 1146 868 1075 633 843 859 527 398 313 98 12 202 185 796 264 17 1 1 3 2 3 93 214 413 690 911 994 798 927 501 409 206 498 510 460 536 579 552 714 724 568 418 537 288 390 347 430 572 473 450 450 470 522 670 646 1090 807 751 642 461 373 245 242 487 608 820 967 1022 1066 1057
1030 1174 1118 1013 1072 1077 1018 804 721 732 560 623 696 808 956 1013 938 724 505 1265 637 423 495 418 172 141 273 342 786 664 163 361 264 44 27 19 16 87 251 487 745 751 556 414 520 236 216 99 103 347 621 583 473 400 343 468 629 638 505 586 501 299 311 651 528 456 634 657 982 1255 1175 800 654 575 733 506 433 537 600 713 748 980 1165 878 1137
884 1078 1099 1121 1116 1006 1042 1075 1106 1184 1028 966 913 582 781 1185 830 963 770 1407 781 719 703 445 206 78 303 292 398 640 176 284 266 58 58 10 0 26 122 398 677 600 492 212 205 206 118 50 45 155 225 245 303 296 738 647 456 540 430 357 309 240 188 499 275 551 655 1048 743 1153 765 512 649 534 501 683 591 315 491 684 756 851 890 892 969
721 812 973 1167 1252 1009 1066 1154 1375 1619 1277 1461 1159 892 553 678 1069 1205 1078 570 279 358 259 58 117 259 277 144 192 342 733 78 152 49 113 26 13 0 32 345 549 576 439 321 182 458 187 125 54 101 205 258 242 334 819 449 247 460 628 355 179 208 389 307 394 455 837 819 897 900 1041 880 554 525 599 557 513 622 728 684 728 807 708 827 850
626 661 766 869 953 1033 1081 1074 1310 1459 1364 1006 865 688 789 732 1167 674 456 398 449 5 10 44 393 194 199 180 130 186 585 120 21 1 154 37 22 0 0 0 1 20 140 84 64 322 179 56 69 109 199 133 86 244 471 500 388 301 320 325 243 103 99 280 276 221 397 536 791 663 819 644 586 539 514 724 726 748 772 698 680 697 756 901 898
569 634 743 847 750 639 710 994 1132 1000 750 621 630 662 670 760 680 508 235 373 0 0 2 14 9 30 103 55 54 291 134 66 6 0 118 18 0 0 0 0 6 17 12 116 40 0 0 1 1 93 112 106 78 106 414 412 309 298 337 522 302 372 385 270 216 441 726 735 630 569 660 486 611 492 702 716 599 594 477 448 529 775 817 702 676
600 463 536 568 784 742 766 848 920 1133 1094 921 1237 492 522 537 589 80 500 60 0 4 304 70 302 538 63 5 0 264 81 7 20 0 0 6 0 0 0 0 17 0 0 29 15 0 12 25 70 13 368 422 32 11 281 376 299 268 290 367 356 323 416 382 479 638 788 731 556 370 539 700 568 484 468 492 458 469 527 537 515 609 735 855 909
528 410 444 296 518 591 708 688 1098 786 735 658 754 307 311 139 65 24 0 0 131 20 1 8 24 466 43 0 16 366 120 8 23 0 0 0 0 0 0 1 48 1 0 10 12 0 0 2 39 0 0 0 0 2 126 372 184 236 137 156 193 307 584 575 708 767 590 456 564 666 602 509 426 431 392 371 464 552 519 596 627 701 768 797 687
486 517 526 449 540 853 539 546 610 694 777 820 521 203 162 105 138 1132 701 15 0 0 39 140 158 102 25 3 18 472 14 16 20 2 0 0 0 0 0 8 62 0 0 0 3 0 0 1 0 3 0 0 0 0 0 317 262 152 79 193 214 392 530 607 739 837 732 726 638 636 584 442 340 341 296 276 281 398 376 408 567 619 629 617 665
616 432 464 557 510 783 976 576 488 572 562 246 257 360 160 262 238 255 183 34 39 43 29 89 86 30 6 2 21 480 2 2 0 2 2 58 0 0 0 0 2 0 0 0 0 0 0 0 0 4 0 0 0 0 0 41 102 102 245 289 281 428 420 511 742 808 783 818 841 693 523 459 505 329 196 218 219 276 330 515 451 484 482 459 487
735 633 435 588 754 778 1020 1170 1046 694 568 478 509 535 530 501 500 375 659 569 291 76 30 12 18 28 8 8 13 97 267 7 0 0 9 215 13 0 0 0 14 0 0 0 0 0 0 0 0 0 0 0 0 8 57 65 109 274 364 388 475 524 583 668 724 778 781 700 612 518 405 374 264 172 182 172 190 216 218 187 162 122 155 174 233
829 672 482 566 724 786 779 917 833 686 558 438 586 636 756 772 496 324 374 444 75 103 51 66 44 89 153 105 84 40 182 4 4 2 165 106 1 0 0 0 2 0 0 0 0 0 0 0 0 20 0 2 0 16 144 224 343 444 460 524 617 694 708 698 684 624 599 498 504 449 369 342 347 236 135 130 128 176 208 208 123 0 7 59 72
767 813 678 578 840 885 662 732 608 616 601 540 601 624 597 339 321 319 357 90 50 152 29 20 38 90 181 38 35 49 15 175 106 0 68 361 4 2 1 0 1 0 29 6 6 0 0 0 0 63 0 3 182 378 428 483 516 500 535 572 581 595 616 582 563 521 436 443 374 352 256 214 170 127 124 104 117 99 104 141 132 81 91 82 42
840 842 944 844 1135 1086 748 649 556 576 658 668 709 630 385 367 362 321 453 223 336 255 75 50 127 191 42 27 65 7 16 2 383 10 0 105 0 12 2 0 0 10 40 17 18 26 8 0 0 2 7 1 97 452 555 543 516 481 566 543 457 447 478 510 477 448 337 288 308 299 198 147 124 160 128 24 50 109 129 66 122 97 101 81 49
931 998 1159 1190 1213 1190 1083 874 779 798 896 931 808 611 542 536 501 444 449 418 345 362 143 46 131 95 159 190 106 0 0 0 722 111 3 0 0 0 1 0 0 12 32 0 0 46 0 0 0 0 0 132 116 169 339 360 413 466 401 332 335 381 360 401 317 337 289 127 287 74 219 130 124 62 10 4 39 85 61 60 74 81 61 44 21
1086 1161 1270 1191 1048 1081 1113 1083 963 928 810 744 1059 795 575 634 810 814 564 401 358 263 5 326 372 158 31 268 16 5 0 0 0 357 53 16 0 0 0 0 1 43 0 0 0 0 0 0 0 0 0 22 151 178 261 211 60 326 309 248 33 62 20 80 194 202 114 228 25 39 109 85 60 0 2 47 43 20 83 103 78 51 15 2 5
1190 1286 1288 1063 921 890 861 849 857 668 575 598 1466 1192 844 785 443 304 318 177 158 709 412 371 346 150 44 166 6 21 0 0 0 23 4 0 0 0 0 0 2 0 0 0 0 0 0 0 0 82 18 3 23 247 319 232 235 282 313 266 242 208 147 50 192 11 158 149 131 85 71 50 17 24 15 18 13 7 12 11 44 48 10 10 10
1082 1098 1081 1039 902 838 772 609 685 607 520 718 961 475 804 528 475 468 556 440 461 534 586 500 420 468 1055 178 0 64 12 0 0 0 6 0 0 0 0 0 0 0 1 0 0 0 0 0 0 46 119 53 2 210 328 326 333 487 267 227 224 99 229 195 52 1 55 107 143 175 147 43 30 15 14 12 14 0 0 2 0 2 6 8 8
1004 1012 1063 960 854 904 827 733 605 648 893 651 472 750 987 774 609 414 396 643 741 798 757 614 501 499 384 45 16 59 163 0 0 0 0 2 0 0 0 0 0 61 113 0 0 0 0 0 0 0 3 52 94 190 346 348 307 519 378 514 326 251 320 212 6 20 69 96 126 91 25 25 16 17 16 5 0 0 1 0 0 0 0 0 0
1000 953 879 885 910 800 826 703 626 641 485 464 524 776 752 932 816 910 1060 1150 952 1017 909 862 919 494 370 526 240 377 330 198 0 0 0 0 0 0 0 0 0 2 313 7 9 3 0 3 4 0 0 0 34 180 328 305 275 288 298 376 705 529 369 47 102 1 68 75 145 106 68 43 18 13 6 0 0 0 0 0 0 0 0 0 0
902 804 740 890 860 572 517 498 595 943 500 506 422 860 997 982 983 895 914 993 1087 924 898 562 452 627 466 470 452 433 278 257 92 0 0 7 5 0 0 0 0 18 7 2 10 19 19 14 11 0 1 0 0 16 212 226 400 360 567 318 585 407 375 49 180 131 7 63 50 83 121 100 29 11 11 1 0 0 0 0 0 0 0 0 0
1199 951 935 1134 832 658 483 432 517 923 742 813 649 536 796 1088 1116 1094 969 814 674 738 775 671 891 701 507 468 518 492 359 297 214 0 0 0 7 0 0 0 0 7 46 0 2 6 9 11 8 1 0 0 2 102 0 8 12 384 462 286 334 443 428 361 350 176 112 2 71 60 69 94 72 29 26 6 0 0 0 0 0 0 0 0 0
1154 1149 1174 1243 1156 1042 534 515 468 505 926 738 612 571 513 574 735 760 707 621 437 537 432 435 447 436 448 558 584 577 580 616 546 369 318 0 0 0 0 0 0 72 60 0 0 0 0 0 3 8 1 0 0 5 157 2 7 222 446 407 373 410 487 369 237 253 179 128 121 16 14 63 37 18 16 0 0 0 0 0 0 0 0 0 0
1059 1095 1152 1278 1226 1184 1123 781 586 454 595 618 611 640 598 484 565 689 659 648 676 644 654 593 140 234 462 517 498 602 593 667 624 494 380 261 2 95 1 0 0 100 26 0 0 0 0 0 0 0 0 0 0 0 8 2 0 2 382 521 561 500 482 516 325 356 285 244 13 23 14 10 14 4 2 2 0 0 0 0 0 0 0 0 0
Wind_Speed
16 15 14 16 18 22 22 20 20 22 23 24 24 25 25 25 26 28 28 28 28 27 28 29 28 31 32 32 32 32 33 33 34 34 34 33 31 30 30 29 29 32 31 32 30 32 32 33 33 32 31 31 29 27 27 29 31 30 31 31 32 31 31 30 30 30 29 28 29 29 nan nan nan nan nan nan nan nan nan nan nan nan nan nan nan
14 14 14 15 18 19 20 20 20 22 23 23 23 24 26 27 28 28 29 28 27 27 28 29 30 30 30 31 31 31 31 31 31 31 33 33 33 32 30 29 29 28 31 29 33 31 31 31 32 31 31 30 28 26 26 28 29 30 31 31 31 31 30 29 29 29 28 27 28 nan nan nan nan nan nan nan 32 nan nan nan nan nan nan nan nan
13 13 12 13 17 17 18 19 21 21 21 22 23 25 26 28 28 29 29 29 29 28 29 30 29 29 29 30 30 29 30 31 32 32 31 31 31 32 31 31 30 29 29 35 32 31 32 31 31 31 29 28 27 26 26 27 28 29 31 30 30 30 29 28 28 28 28 28 nan nan nan nan nan nan nan nan nan nan nan nan nan nan nan nan nan
12 10 10 11 16 15 16 18 19 20 22 22 24 25 27 29 29 29 30 30 30 31 29 29 29 29 29 30 31 31 30 30 30 30 29 29 30 30 32 31 30 29 34 31 31 31 31 30 30 30 28 27 26 26 26 26 28 30 31 30 29 29 28 27 27 27 28 29 nan nan 24 nan nan nan nan nan nan nan nan nan nan nan nan nan nan
9 8 9 9 9 14 16 18 18 19 21 23 24 25 27 28 29 29 30 30 32 32 30 28 28 29 30 31 32 31 30 29 28 28 27 25 30 32 30 29 29 29 30 29 29 29 30 30 30 29 28 27 26 25 25 26 28 31 31 29 28 28 27 26 27 28 29 nan nan nan nan nan nan nan nan nan nan nan nan nan nan nan nan nan nan
8 8 9 9 10 12 17 18 19 20 21 22 24 24 25 26 27 28 28 30 30 29 28 27 28 30 31 31 31 30 30 29 28 28 27 28 31 29 30 28 28 29 29 29 29 30 29 29 29 28 27 27 26 25 25 25 27 30 30 28 27 27 26 24 26 27 nan nan nan nan nan nan nan nan nan nan nan nan nan nan nan nan nan nan nan
10 11 10 9 8 12 18 19 18 19 21 22 23 23 24 24 24 25 26 27 26 26 26 28 30 30 30 30 30 29 29 29 29 28 28 29 28 27 28 28 27 29 30 30 30 29 29 29 28 27 26 25 25 24 24 25 27 28 28 28 27 25 24 24 22 23 28 nan nan nan nan nan nan nan nan nan nan nan nan nan nan nan nan nan nan
11 11 12 10 10 13 19 19 18 20 21 21 21 21 21 22 22 23 24 25 25 24 24 26 29 29 29 28 28 28 29 29 29 27 26 26 25 26 26 27 28 30 29 29 29 28 28 28 27 26 25 24 23 22 23 24 25 26 27 27 26 24 21 20 18 18 16 19 22 20 nan nan nan nan nan nan nan nan nan nan nan nan nan nan nan
10 9 10 10 10 17 18 18 18 19 19 19 20 20 20 20 21 22 23 24 25 25 24 24 26 27 27 27 27 27 28 28 27 25 24 24 24 25 26 27 28 29 28 27 27 25 27 26 26 25 24 23 22 20 20 21 22 23 24 25 23 22 19 16 15 16 15 17 20 19 nan nan nan nan nan nan nan nan nan nan nan nan nan nan nan
11 11 10 10 9 15 16 18 18 18 17 18 19 20 21 21 21 22 23 24 24 23 21 21 23 24 25 25 26 26 27 26 25 23 23 23 24 24 24 26 28 28 26 25 24 23 25 25 25 24 24 23 22 19 19 19 20 21 23 23 22 18 17 15 13 13 17 17 21 21 nan nan nan nan nan nan nan nan nan nan 22 nan nan nan nan
12 11 10 10 11 15 17 17 17 16 17 17 18 20 21 22 22 22 22 22 22 21 20 19 19 21 22 24 24 25 25 24 23 23 23 23 23 22 23 24 24 27 25 24 23 25 24 24 24 24 24 23 21 19 18 18 19 21 22 22 19 18 18 15 15 16 15 nan 23 21 19 21 nan nan 22 nan nan nan nan nan nan nan nan nan nan
11 10 9 8 14 16 17 17 17 17 17 17 17 19 20 21 22 22 21 21 21 20 18 18 18 19 20 21 21 22 23 22 22 22 22 23 22 22 21 22 23 24 24 24 23 24 23 23 23 23 21 20 18 17 16 17 18 19 19 19 16 17 16 18 17 15 17 nan nan nan 17 nan nan nan 21 nan nan nan nan nan nan nan nan nan nan
10 10 9 9 8 16 18 17 16 18 17 18 18 18 19 20 21 21 21 20 20 19 18 17 17 18 18 18 19 20 21 20 20 19 19 20 21 21 20 19 20 21 22 22 22 22 21 22 21 19 17 16 15 14 14 14 15 16 17 16 15 15 16 21 18 16 15 nan 19 19 nan nan nan 17 19 nan nan nan nan nan nan nan nan nan nan
9 10 9 8 9 16 19 18 18 18 18 17 17 18 19 20 20 21 21 21 19 18 17 16 15 15 15 16 17 18 18 17 17 16 17 18 19 18 17 17 17 19 20 21 21 20 19 18 17 16 15 14 13 12 13 14 14 16 16 16 16 17 18 19 19 17 15 nan nan nan nan nan nan 18 19 nan nan nan nan nan nan nan nan nan nan
9 9 10 10 10 11 19 18 17 17 18 18 18 17 18 19 19 20 20 20 19 17 16 14 13 13 13 15 16 16 16 15 15 16 16 17 17 16 15 15 16 18 19 19 17 16 16 16 16 16 15 14 13 13 13 14 14 15 15 15 15 15 17 15 15 14 nan 15 15 nan nan nan 16 19 19 nan nan nan nan nan nan nan nan nan nan
9 9 10 10 10 10 11 16 16 16 17 18 18 17 18 19 19 19 19 18 16 14 13 11 11 11 12 13 12 13 14 14 14 14 15 16 16 15 14 15 16 17 17 16 14 14 14 15 15 15 14 14 14 13 13 13 13 14 14 14 14 15 17 14 14 10 9 nan nan nan nan nan 19 19 20 nan nan nan nan nan nan nan nan nan nan
9 9 10 10 11 11 11 9 13 16 16 18 18 18 19 19 19 18 17 14 11 10 10 10 10 10 10 10 9 8 8 9 10 12 13 13 14 14 14 14 15 15 15 13 12 13 13 13 13 13 12 12 12 12 12 13 13 14 14 15 17 18 18 16 14 12 10 15 nan nan nan 14 19 21 22 nan nan nan nan nan nan nan nan nan nan
10 9 9 9 10 10 11 11 11 10 10 12 16 18 18 17 18 18 15 10 6 7 8 7 7 7 7 8 7 6 4 6 8 10 11 11 12 12 13 13 13 14 13 12 11 12 12 12 12 11 11 11 11 12 13 14 14 15 15 16 17 17 17 19 15 13 14 18 nan nan nan 18 23 23 24 nan nan nan nan nan nan nan nan nan nan
9 9 8 8 8 10 11 11 10 9 9 9 10 12 14 15 15 14 10 6 3 4 5 5 4 4 5 5 5 5 4 6 8 9 8 8 8 9 10 11 11 12 11 9 10 10 10 10 10 11 11 11 12 13 14 13 14 14 15 15 16 17 22 20 18 17 19 22 nan nan nan 23 25 26 26 26 nan nan nan nan nan nan nan nan nan
7 7 7 6 7 9 10 10 8 7 6 7 8 9 12 12 11 9 5 2 2 3 4 2 3 2 2 1 2 3 4 5 7 6 6 6 6 6 7 8 9 8 7 7 8 9 10 11 11 11 11 12 14 15 15 15 15 15 14 14 16 21 22 22 20 20 21 22 22 22 20 25 27 27 27 26 nan nan nan nan nan nan nan nan nan
2 4 5 6 6 7 6 6 4 3 3 5 7 7 8 9 7 7 3 1 3 2 3 4 5 6 3 1 2 4 4 4 6 6 6 5 2 2 5 5 5 4 3 3 5 7 9 11 12 12 12 12 13 14 16 16 17 17 16 16 18 22 21 22 21 17 18 18 20 nan 19 25 26 28 28 nan nan nan nan nan nan nan nan nan nan
2 2 3 5 6 6 6 5 3 2 2 3 5 5 3 5 2 3 3 6 9 4 4 3 4 2 3 1 3 4 6 4 4 5 4 3 3 1 1 3 2 1 1 2 3 4 6 8 9 9 9 10 11 15 15 15 15 15 18 21 20 19 17 15 16 14 15 13 15 16 19 23 24 25 26 26 nan nan nan nan nan nan nan nan nan
5 5 4 4 5 5 6 5 3 1 1 3 3 2 2 2 3 5 7 10 11 8 5 2 2 2 1 1 3 2 3 3 3 3 3 4 1 2 1 0 1 1 0 1 3 3 3 4 4 4 4 6 10 12 11 11 nan 15 18 17 nan nan 12 13 12 13 13 12 14 13 19 20 21 23 23 23 22 nan nan nan nan nan nan nan nan
5 3 4 3 3 4 4 3 3 2 1 1 1 0 1 3 4 5 7 11 12 11 9 6 4 4 2 1 1 2 2 3 6 9 8 5 6 8 3 1 0 1 0 2 2 2 3 4 3 3 3 7 7 8 8 9 13 15 14 14 14 13 13 12 10 11 11 11 11 14 19 19 19 20 22 22 20 nan nan nan nan nan nan nan nan
2 2 4 2 2 3 3 3 2 3 1 1 1 1 1 2 4 4 5 7 8 8 7 6 5 5 5 5 6 5 5 4 3 2 2 3 3 3 4 5 4 4 4 5 5 6 8 6 6 5 6 7 8 8 8 10 13 15 14 13 14 14 12 10 8 8 10 8 7 10 15 17 17 18 19 21 20 19 nan nan 20 20 nan nan nan
1 3 2 1 1 2 2 1 0 1 1 3 2 4 3 4 3 4 4 6 6 7 5 5 5 5 6 8 7 6 6 5 5 5 4 3 1 2 2 3 4 3 5 6 5 6 5 5 4 3 4 8 9 9 9 11 11 13 13 13 16 13 10 7 8 9 9 9 6 7 13 15 15 16 17 17 13 17 nan nan nan 18 17 17 nan
3 2 0 1 0 1 1 1 2 3 3 3 3 5 7 8 7 7 6 7 6 6 5 4 4 3 nan 3 4 nan nan nan nan nan nan 1 2 1 2 2 2 1 2 2 1 2 1 2 2 1 2 5 5 6 7 8 9 9 11 13 14 13 9 7 9 10 10 8 6 2 9 13 13 13 19 16 10 15 15 10 13 15 15 14 13
3 2 2 2 3 4 4 3 4 4 4 4 3 4 6 9 10 10 9 10 7 7 6 4 nan nan 1 1 1 1 nan nan nan nan nan nan nan 3 2 3 3 1 1 2 1 4 3 2 2 1 1 3 4 5 6 6 7 8 11 13 12 12 10 7 9 8 8 7 8 5 4 9 10 14 11 13 15 11 8 8 8 9 12 14 14
2 3 3 4 4 4 4 5 5 6 5 3 2 3 6 8 11 12 12 12 10 9 8 6 4 2 1 2 2 2 1 2 4 nan nan nan nan nan 5 5 6 4 3 2 2 2 1 nan 1 1 3 2 4 5 7 7 8 9 13 13 12 11 10 10 11 8 8 8 9 7 5 12 17 13 12 14 16 16 9 8 10 9 8 9 10
2 2 4 5 4 4 3 3 5 7 6 4 3 5 5 7 10 11 11 10 10 10 9 8 6 nan 3 2 2 3 3 3 3 nan nan nan nan nan 5 5 6 6 7 4 5 4 1 nan nan 2 4 4 4 7 11 11 10 9 12 14 13 13 13 12 12 12 10 9 10 10 12 15 20 22 17 19 19 19 13 13 14 15 12 10 10
4 4 5 5 4 4 4 4 3 3 3 3 5 6 6 8 10 11 11 9 8 6 6 nan 8 7 6 5 4 3 2 nan 4 nan 6 nan nan nan nan 6 5 5 6 4 3 4 4 4 nan 3 5 6 6 9 13 14 12 11 12 14 14 16 16 15 14 15 14 10 12 13 14 21 24 24 22 22 24 21 18 18 19 17 14 13 13
4 4 5 5 3 2 3 3 3 3 0 1 3 5 7 7 8 9 9 10 10 nan nan nan 9 8 6 4 5 5 4 4 nan nan 5 nan nan nan nan nan nan nan 6 nan nan 4 5 nan nan 6 6 7 nan 8 13 16 14 13 14 14 15 17 nan 17 18 18 16 15 16 18 17 19 24 24 24 24 24 21 19 20 19 18 17 16 16
5 3 4 5 3 1 2 4 4 2 1 2 3 5 5 6 6 7 9 9 nan nan nan nan nan nan 7 nan nan 4 3 nan nan nan 4 nan nan nan nan nan nan nan nan 6 nan nan nan nan nan nan 7 8 nan 7 14 15 15 13 16 16 17 19 18 19 20 20 18 20 20 20 19 19 20 25 26 23 23 21 22 23 22 22 21 21 22
6 6 6 5 3 2 3 3 3 3 2 3 4 4 4 4 5 nan 6 nan nan nan 9 nan 9 8 nan nan nan 4 nan nan nan nan nan nan nan nan nan nan nan nan nan nan nan nan nan nan nan nan 8 8 nan nan 14 15 14 14 14 17 19 20 20 20 20 20 21 22 22 21 20 20 21 21 21 24 24 25 27 27 26 24 25 27 27
8 7 6 5 5 4 3 3 2 2 2 3 3 4 4 4 nan nan nan nan 6 nan nan nan nan 6 nan nan nan 3 2 nan nan nan nan nan nan nan nan nan nan nan nan nan nan nan nan nan nan nan nan nan nan nan 13 15 16 14 15 19 20 20 22 22 21 22 23 23 24 23 22 22 22 23 21 21 25 29 30 30 30 30 31 31 31
7 7 7 7 7 6 3 2 3 3 4 4 4 5 4 5 4 4 6 nan nan nan nan 4 4 3 nan nan nan 2 nan nan nan nan nan nan nan nan nan nan nan nan nan nan nan nan nan nan nan nan nan nan nan nan nan 17 14 16 nan 19 20 21 22 23 23 23 24 25 25 24 24 26 24 24 26 23 22 26 32 33 34 34 35 37 37
7 8 9 9 8 8 5 3 4 4 5 5 5 5 4 3 3 5 6 nan nan nan nan nan nan nan nan nan nan 3 nan nan nan nan nan nan nan nan nan nan nan nan nan nan nan nan nan nan nan nan nan nan nan nan nan nan 17 17 17 18 19 20 22 22 22 24 23 26 26 22 26 26 28 29 26 25 24 23 32 37 37 37 38 40 41
7 7 9 8 10 9 7 5 4 5 5 6 6 6 6 5 5 4 3 3 2 nan nan nan nan nan nan nan nan nan 5 nan nan nan nan 7 nan nan nan nan nan nan nan nan nan nan nan nan nan nan nan nan nan nan nan nan 17 17 18 19 18 20 21 20 20 22 23 25 28 24 26 25 29 28 28 28 28 27 25 29 34 37 40 40 42
8 8 9 10 11 11 9 8 6 6 5 6 5 6 5 4 3 3 4 4 nan 4 nan nan nan nan 6 5 nan nan 5 nan nan nan 9 9 nan nan nan nan nan nan nan nan nan nan nan nan nan nan nan nan nan nan 15 17 19 19 19 20 20 20 21 21 21 21 22 24 26 25 27 29 30 31 31 29 29 28 28 27 27 nan nan nan nan
8 7 8 9 9 9 7 6 4 3 3 3 3 3 2 1 2 4 4 nan nan 6 nan nan nan nan 7 nan nan nan nan 7 7 nan nan 11 nan nan nan nan nan nan nan nan nan nan nan nan nan nan nan nan 23 20 19 20 19 19 20 21 20 20 21 21 23 24 22 21 21 20 27 30 31 30 30 30 30 nan 31 30 29 nan nan nan nan
8 8 7 6 6 5 5 5 4 3 2 2 2 1 1 2 3 3 2 3 4 7 nan nan 8 7 nan nan nan nan nan nan 9 nan nan 11 nan nan nan nan nan nan nan nan nan nan nan nan nan nan nan nan nan 20 19 21 23 20 19 21 22 21 23 23 24 23 22 21 23 26 27 27 31 32 32 nan nan 32 30 nan 29 nan 30 nan nan
7 6 6 6 5 5 3 5 4 3 2 3 3 2 4 4 3 3 4 5 7 8 8 nan 7 nan 9 8 8 nan nan nan 11 11 nan nan nan nan nan nan nan nan nan nan nan nan nan nan nan nan nan 19 20 21 18 20 18 22 24 22 23 24 24 23 22 22 22 24 27 nan 30 31 32 nan nan nan nan nan nan nan nan nan nan nan nan
4 5 6 5 5 5 5 3 4 2 1 2 3 3 4 4 4 5 7 7 6 6 nan 6 8 9 nan 9 nan nan nan nan nan 12 nan nan nan nan nan nan nan nan nan nan nan nan nan nan nan nan nan nan 19 19 20 20 nan 23 23 26 nan nan nan nan 22 21 22 27 nan nan 29 nan nan nan nan nan nan nan nan 32 nan nan nan nan nan
7 5 6 6 5 6 5 3 3 2 2 3 3 3 5 5 5 9 7 8 6 7 8 7 9 10 nan 8 nan nan nan nan nan nan nan nan nan nan nan nan nan nan nan nan nan nan nan nan nan nan nan nan nan 17 19 20 24 28 23 22 22 23 26 nan 22 nan 23 26 28 nan nan nan nan nan nan nan nan nan nan nan nan nan nan nan nan
12 10 8 7 5 6 6 4 4 3 4 4 3 5 7 6 8 8 8 7 7 8 9 9 9 10 9 9 nan nan nan nan nan nan nan nan nan nan nan nan nan nan nan nan nan nan nan nan nan nan 18 nan nan 18 18 20 21 21 25 25 23 nan 23 26 nan nan nan 26 27 29 30 nan nan nan nan nan nan nan nan nan nan nan nan nan nan
15 14 12 10 8 7 6 6 4 3 2 1 2 5 7 7 9 9 9 9 8 8 9 8 8 10 10 nan nan nan 12 nan nan nan nan nan nan nan nan nan nan nan 19 nan nan nan nan nan nan nan nan nan nan 18 17 17 20 20 22 22 25 26 28 27 nan nan nan nan 26 nan nan nan nan nan nan nan nan nan nan nan nan nan nan nan nan
17 16 14 12 9 8 7 5 3 3 2 3 4 5 5 6 7 8 9 9 9 8 10 11 12 10 11 10 10 12 14 14 nan nan nan nan nan nan nan nan nan nan 17 nan nan nan nan nan nan nan nan nan nan 17 16 16 16 20 21 20 21 24 28 nan 25 nan nan nan 26 29 nan nan nan nan nan nan nan nan nan nan nan nan nan nan nan
16 15 14 11 9 9 7 6 2 2 2 3 4 6 6 6 6 6 9 10 11 10 11 11 13 14 14 12 13 13 14 15 nan nan nan nan nan nan nan nan nan nan nan nan nan nan nan nan nan nan nan nan nan nan 15 17 20 18 21 21 22 26 26 nan 28 29 nan nan nan nan 30 30 nan nan nan nan nan nan nan nan nan nan nan nan nan
10 11 10 10 9 8 6 5 3 2 2 1 4 5 7 6 6 8 8 10 12 10 11 12 14 15 15 13 14 15 16 16 16 nan nan nan nan nan nan nan nan nan nan nan nan nan nan nan nan nan nan nan nan 18 nan nan nan 19 21 21 22 24 23 24 26 26 28 nan nan nan nan nan nan nan nan nan nan nan nan nan nan nan nan nan nan
10 9 8 6 6 5 4 4 3 2 2 2 3 4 6 7 8 9 10 8 11 12 14 14 14 15 16 15 15 16 18 17 18 19 20 nan nan nan nan nan nan nan nan nan nan nan nan nan nan nan nan nan nan nan 19 nan nan 18 21 22 22 22 23 23 24 26 26 26 30 nan nan nan nan nan nan nan nan nan nan nan nan nan nan nan nan
9 7 6 5 5 2 1 2 4 3 2 2 3 3 4 6 7 8 8 9 10 13 14 15 16 17 18 18 18 18 19 20 20 20 22 22 nan nan nan nan nan 16 nan nan nan nan nan nan nan nan nan nan nan nan nan nan nan nan 20 21 22 23 24 25 25 26 27 26 nan nan nan nan nan nan nan nan nan nan nan nan nan nan nan nan nan
Wind_Direction
296 291 294 296 290 288 291 288 280 280 282 284 288 286 283 277 274 275 274 273 273 275 276 276 274 274 272 271 271 270 270 269 268 269 270 270 271 270 269 270 275 278 275 274 275 271 270 266 267 268 269 268 268 267 268 269 272 274 274 272 271 271 269 268 268 269 269 266 261 260 nan nan nan nan nan nan nan nan nan nan nan nan nan nan nan
307 296 296 302 295 289 289 288 284 283 285 287 286 287 286 281 279 276 275 275 273 273 274 274 275 274 272 269 269 267 266 267 268 269 270 270 269 269 268 269 271 275 279 276 271 273 273 273 272 272 272 273 273 271 270 270 271 270 271 271 270 268 267 266 266 265 264 263 261 nan nan nan nan nan nan nan 271 nan nan nan nan nan nan nan nan
296 291 290 295 291 288 286 287 287 288 290 289 289 289 286 284 282 280 279 277 275 272 270 271 272 272 271 268 265 264 266 268 267 268 267 266 268 268 269 269 271 271 272 271 275 275 274 275 275 274 274 275 276 274 272 269 266 267 269 268 267 267 266 265 263 263 262 262 nan nan nan nan nan nan nan nan nan nan nan nan nan nan nan nan nan
283 281 273 270 282 286 286 284 287 289 289 289 290 289 288 284 283 282 281 281 279 276 271 270 272 271 268 266 263 262 263 265 267 267 267 266 268 269 267 267 271 273 271 272 274 274 275 276 275 276 277 276 275 274 272 269 266 264 264 263 263 262 264 265 265 263 262 261 nan nan 248 nan nan nan nan nan nan nan nan nan nan nan nan nan nan
291 278 263 259 267 286 287 286 286 286 289 292 292 290 287 286 282 281 280 278 277 275 269 269 269 270 268 266 263 261 260 263 264 265 265 264 267 267 267 268 270 273 274 274 274 275 273 273 276 278 278 278 275 273 272 270 269 266 263 261 261 261 262 264 264 262 262 nan nan nan nan nan nan nan nan nan nan nan nan nan nan nan nan nan nan
308 294 281 275 276 287 287 289 290 289 290 291 292 291 288 284 283 280 278 276 273 269 267 268 270 269 266 265 263 261 260 260 262 259 253 266 267 266 265 268 272 274 276 278 279 276 276 277 276 276 277 277 276 275 273 270 267 265 265 262 259 260 259 261 266 264 nan nan nan nan nan nan nan nan nan nan nan nan nan nan nan nan nan nan nan
290 286 284 279 278 289 291 289 291 291 292 294 294 294 291 287 286 284 281 279 276 274 273 273 271 268 267 265 264 261 260 260 259 259 260 264 265 264 267 272 277 278 278 279 280 280 279 277 276 275 273 273 274 273 271 266 263 262 262 260 258 257 258 263 259 260 270 nan nan nan nan nan nan nan nan nan nan nan nan nan nan nan nan nan nan
300 282 271 271 282 294 291 291 289 292 295 297 297 295 291 287 284 287 287 283 281 279 277 273 271 267 264 264 262 260 259 260 261 261 263 264 263 263 265 273 275 279 280 281 280 281 279 278 277 275 273 270 268 267 265 263 261 259 259 257 257 257 254 259 264 265 269 258 265 261 nan nan nan nan nan nan nan nan nan nan nan nan nan nan nan
311 301 277 271 282 289 290 291 294 294 295 298 299 298 294 291 289 287 288 287 282 277 275 273 270 266 264 262 260 258 257 259 262 264 265 267 268 270 273 276 277 278 280 281 275 274 276 275 275 273 270 265 261 257 255 258 258 258 259 259 260 261 265 266 269 280 274 263 269 271 nan nan nan nan nan nan nan nan nan nan nan nan nan nan nan
292 288 281 276 284 288 288 293 298 300 302 304 302 299 295 294 290 288 285 283 281 278 276 273 269 266 265 263 260 258 257 258 260 266 270 270 268 269 271 275 280 279 282 283 281 280 276 272 270 266 263 259 256 251 247 248 251 251 253 254 257 260 260 262 266 268 269 272 274 277 nan nan nan nan nan nan nan nan nan nan 249 nan nan nan nan
276 274 278 285 291 289 295 296 299 303 302 301 298 295 295 295 292 288 287 284 280 277 273 271 269 268 267 263 259 256 255 257 260 266 270 271 269 268 272 275 279 287 289 281 283 280 277 272 267 263 259 256 253 247 241 238 241 243 245 247 249 250 250 251 253 262 261 nan 279 279 283 292 nan nan 280 nan nan nan nan nan nan nan nan nan nan
280 277 273 287 291 295 297 293 295 298 301 295 295 293 293 293 291 286 284 283 281 274 271 272 268 267 266 261 255 253 253 255 259 264 270 272 270 268 268 271 277 276 277 277 276 276 274 269 266 263 260 257 255 250 241 238 234 234 239 242 243 249 253 250 257 258 257 nan nan nan 279 nan nan nan 283 nan nan nan nan nan nan nan nan nan nan
282 280 279 281 296 297 295 292 294 293 290 293 290 291 292 294 293 288 286 287 284 278 279 275 269 265 261 257 253 251 251 252 255 259 267 271 270 269 268 269 274 275 275 275 274 271 269 266 263 263 261 257 255 250 243 234 238 236 236 236 233 235 235 243 247 242 256 nan 275 276 nan nan nan 281 277 nan nan nan nan nan nan nan nan nan nan
280 278 277 284 293 295 292 289 288 284 281 281 287 288 290 291 293 289 285 285 284 280 275 272 264 257 257 254 252 249 248 251 255 260 266 267 267 268 271 273 273 271 272 274 272 266 262 260 258 257 255 252 244 237 232 224 217 224 226 222 219 220 221 243 244 238 254 nan nan nan nan nan nan 280 276 nan nan nan nan nan nan nan nan nan nan
278 282 277 275 281 288 288 286 284 286 286 286 289 290 293 295 296 297 294 291 286 276 270 270 265 258 256 257 254 255 258 262 267 270 271 267 264 266 270 274 274 270 268 265 262 258 255 254 252 249 248 245 235 223 217 214 208 207 209 212 212 211 213 252 252 250 nan 267 265 nan nan nan 282 282 279 nan nan nan nan nan nan nan nan nan nan
278 287 281 280 279 278 280 284 285 287 288 288 288 290 294 298 300 301 302 297 285 270 266 263 253 250 250 254 262 266 266 266 272 276 275 268 265 268 269 267 268 266 262 257 250 245 245 244 246 243 241 235 228 219 210 205 200 198 196 198 201 202 205 223 267 261 268 nan nan nan nan nan 290 287 284 nan nan nan nan nan nan nan nan nan nan
270 279 283 279 274 276 271 269 276 273 283 290 291 296 300 305 308 307 310 308 283 258 256 251 244 241 248 258 271 274 267 265 276 281 278 272 266 267 268 265 265 264 257 251 240 239 238 236 235 234 231 226 219 214 207 196 193 192 190 195 199 203 202 212 241 268 277 284 nan nan nan 279 293 294 291 nan nan nan nan nan nan nan nan nan nan
267 273 279 274 266 264 261 261 263 269 270 273 286 290 302 310 316 318 320 319 280 249 255 250 242 238 255 261 265 261 255 267 273 275 274 271 268 267 267 268 266 262 258 250 239 239 237 231 228 227 221 216 211 210 204 196 196 196 197 201 206 210 212 223 239 245 270 287 nan nan nan 290 301 297 294 nan nan nan nan nan nan nan nan nan nan
265 265 265 260 257 257 259 263 268 275 278 287 291 298 300 313 318 318 314 319 309 272 260 253 247 238 243 263 267 278 283 283 282 279 276 266 265 266 268 266 267 263 259 251 246 243 238 233 228 223 216 209 210 213 210 205 207 206 209 212 217 223 231 240 242 247 262 276 nan nan nan 299 299 299 296 295 nan nan nan nan nan nan nan nan nan
261 251 249 241 250 257 259 262 270 281 290 299 296 302 314 313 313 314 289 266 313 334 330 232 198 216 222 228 279 258 240 251 273 268 289 270 268 262 270 270 264 264 254 249 250 244 241 235 230 222 215 213 212 215 215 212 213 215 217 221 227 237 250 248 244 252 265 273 274 273 288 301 298 298 298 296 nan nan nan nan nan nan nan nan nan
229 228 239 248 247 253 256 262 269 294 296 303 299 309 323 303 311 328 302 222 184 126 89 140 161 169 195 166 244 261 262 263 260 251 256 256 259 286 299 280 268 249 245 247 241 239 235 230 228 224 220 220 222 223 226 225 224 224 224 226 233 250 251 254 249 248 258 269 280 nan 301 300 297 296 293 nan nan nan nan nan nan nan nan nan nan
219 230 226 241 247 237 243 256 267 313 308 278 298 313 310 300 335 30 96 131 120 132 130 134 184 191 154 228 259 265 270 259 250 214 230 223 186 337 317 297 291 243 206 186 191 198 208 213 218 220 221 226 226 245 245 240 238 239 241 239 248 251 260 266 264 261 260 267 277 291 308 304 300 296 294 293 nan nan nan nan nan nan nan nan nan
243 241 235 245 243 241 241 256 263 269 267 253 279 314 322 29 70 59 83 108 104 108 118 130 123 114 130 215 250 245 247 206 161 123 114 81 115 110 111 25 340 324 240 177 173 170 173 170 175 192 210 219 245 253 254 258 nan 249 248 251 nan nan 281 276 273 280 284 271 275 293 305 304 303 301 300 301 299 nan nan nan nan nan nan nan nan
251 247 246 235 246 254 251 258 245 199 219 233 280 222 257 77 84 84 82 89 95 97 103 113 114 119 136 76 89 109 109 125 143 154 170 170 169 178 159 34 338 290 337 259 228 207 169 168 155 151 235 261 265 267 264 262 264 263 260 268 283 288 275 268 266 272 268 276 277 317 315 307 305 303 304 304 301 nan nan nan nan nan nan nan nan
249 218 224 224 262 288 272 242 217 203 210 103 37 113 124 91 94 87 84 91 91 91 101 113 97 95 96 91 100 107 94 94 114 139 152 148 159 176 192 210 236 228 203 241 259 252 239 236 248 258 279 283 279 274 272 264 268 271 274 281 286 275 269 274 279 280 291 283 288 332 328 319 308 308 303 302 299 294 nan nan 309 310 nan nan nan
203 233 232 231 271 279 271 286 285 146 94 92 124 97 111 108 122 102 93 87 83 82 91 99 94 91 98 102 106 114 108 99 113 113 95 103 136 125 157 206 207 225 217 217 250 256 250 236 226 245 287 284 275 275 274 268 270 274 273 274 280 283 281 284 291 293 290 304 312 6 351 341 331 317 291 259 282 298 nan nan nan 313 306 304 nan
216 194 198 32 55 114 124 66 61 72 99 142 121 103 95 89 88 94 106 105 88 86 75 67 68 67 nan 65 98 nan nan nan nan nan nan 128 160 149 133 178 185 216 183 154 181 196 205 169 180 199 260 260 246 265 286 282 292 293 285 278 281 290 296 293 289 288 297 317 321 30 9 354 328 288 273 313 298 262 279 290 271 261 288 295 305
224 192 158 153 110 89 80 74 75 85 105 113 126 117 101 94 91 100 104 97 107 102 114 128 nan nan 310 29 24 81 nan nan nan nan nan nan nan 236 251 252 263 229 109 81 115 137 134 174 186 169 297 265 220 243 278 284 298 302 285 277 282 288 288 282 282 287 289 297 303 320 4 340 302 283 320 314 294 279 299 325 307 302 290 285 278
185 161 170 195 149 103 84 80 84 86 91 97 103 81 82 84 85 96 109 112 109 103 106 122 138 137 58 0 351 11 164 223 232 nan nan nan nan nan 258 248 250 240 246 295 329 114 65 nan 86 315 298 271 249 252 267 272 283 284 285 286 291 284 275 267 268 274 277 286 292 290 315 312 293 315 322 312 317 313 338 324 297 294 309 317 301
122 161 186 175 167 166 140 102 78 78 74 53 48 68 67 63 77 86 89 104 110 109 112 118 111 nan 133 201 246 306 333 285 262 nan nan nan nan nan 257 263 260 254 262 262 289 295 340 nan nan 263 279 287 282 288 288 290 281 284 287 297 300 300 295 288 280 276 270 274 274 268 280 290 303 305 318 317 314 326 334 320 313 302 290 282 283
155 175 186 178 162 162 157 159 149 103 72 30 349 27 35 52 63 68 75 87 94 97 104 nan 113 128 149 167 194 193 213 nan 220 nan 229 nan nan nan nan 265 274 285 293 309 274 290 295 308 nan 289 287 298 303 303 304 298 298 298 294 294 302 295 296 294 284 281 291 289 284 275 279 280 289 301 307 306 310 319 320 307 294 291 292 286 281
164 177 186 180 185 157 146 136 134 117 37 342 359 7 30 47 65 80 83 91 95 nan nan nan 110 116 121 150 165 167 179 183 nan nan 212 nan nan nan nan nan nan nan 309 nan nan 312 301 nan nan 292 298 296 nan 301 300 300 304 308 297 293 293 290 nan 290 285 289 290 284 282 280 279 289 289 292 293 291 297 302 298 288 284 285 290 289 280
147 178 198 217 225 153 137 120 136 162 221 25 43 47 48 56 65 80 97 106 nan nan nan nan nan nan 102 nan nan 130 141 nan nan nan 207 nan nan nan nan nan nan nan nan 263 nan nan nan nan nan nan 293 293 nan 300 295 298 301 299 298 296 291 285 285 288 291 292 292 290 289 286 288 288 289 288 286 286 285 284 278 276 278 277 278 280 282
148 168 192 204 196 156 128 132 163 167 86 76 61 49 52 57 56 nan 86 nan nan nan 102 nan 94 84 nan nan nan 113 nan nan nan nan nan nan nan nan nan nan nan nan nan nan nan nan nan nan nan nan 261 272 nan nan 296 296 295 295 296 289 286 287 290 288 292 291 289 289 290 289 287 286 286 286 284 281 280 277 272 273 274 275 273 273 275
137 161 183 176 183 160 122 139 123 136 93 84 65 48 42 48 nan nan nan nan 102 nan nan nan nan 68 nan nan nan 117 139 nan nan nan nan nan nan nan nan nan nan nan nan nan nan nan nan nan nan nan nan nan nan nan 291 297 297 303 290 281 281 284 285 289 287 287 288 291 292 291 288 285 283 281 278 275 272 271 272 272 271 269 269 268 269
132 141 172 180 174 158 156 145 133 112 101 86 69 61 53 49 46 77 81 nan nan nan nan 99 93 68 nan nan nan 152 nan nan nan nan nan nan nan nan nan nan nan nan nan nan nan nan nan nan nan nan nan nan nan nan nan 293 296 287 nan 277 280 283 285 286 287 287 292 294 294 295 292 288 285 286 281 274 273 274 272 270 268 266 264 264 264
130 155 172 172 167 157 158 148 124 116 111 116 118 111 107 124 129 98 79 nan nan nan nan nan nan nan nan nan nan 218 nan nan nan nan nan nan nan nan nan nan nan nan nan nan nan nan nan nan nan nan nan nan nan nan nan nan 287 277 272 274 278 281 282 284 289 291 294 294 290 285 288 287 288 284 279 278 275 271 269 265 263 261 259 259 259
140 168 173 176 167 158 160 140 133 125 123 124 139 148 144 146 128 123 120 146 184 nan nan nan nan nan nan nan nan nan 248 nan nan nan nan 255 nan nan nan nan nan nan nan nan nan nan nan nan nan nan nan nan nan nan nan nan 278 273 274 273 274 277 278 280 285 288 290 291 293 295 288 293 288 285 283 281 277 275 270 262 257 257 257 257 258
156 176 179 176 179 176 168 161 156 151 154 160 153 153 147 132 121 178 189 199 nan 274 nan nan nan nan 273 264 nan nan 251 nan nan nan 262 257 nan nan nan nan nan nan nan nan nan nan nan nan nan nan nan nan nan nan 281 276 275 277 275 272 273 273 277 277 279 281 285 289 283 283 291 290 289 287 285 284 283 279 274 270 267 nan nan nan nan
157 175 177 177 176 175 175 150 140 137 146 154 167 144 149 189 186 180 207 nan nan 269 nan nan nan nan 277 nan nan nan nan 258 255 nan nan 266 nan nan nan nan nan nan nan nan nan nan nan nan nan nan nan nan 279 285 287 280 275 272 276 276 276 275 273 276 278 281 283 275 273 281 292 290 286 287 287 286 284 nan 279 276 273 nan nan nan nan
149 164 170 164 163 162 167 132 109 126 127 123 129 328 293 192 254 252 274 281 293 277 nan nan 276 289 nan nan nan nan nan nan 275 nan nan 264 nan nan nan nan nan nan nan nan nan nan nan nan nan nan nan nan nan 281 284 287 289 281 278 280 279 279 278 279 281 281 280 278 274 277 281 280 283 285 287 nan nan 285 281 nan 275 nan 272 nan nan
127 143 143 134 148 159 137 110 126 129 97 33 25 289 305 310 324 335 298 294 281 273 273 nan 298 nan 291 291 285 nan nan nan 275 281 nan nan nan nan nan nan nan nan nan nan nan nan nan nan nan nan nan 281 282 286 293 292 291 299 298 291 285 284 281 279 279 276 279 274 275 nan 288 282 280 nan nan nan nan nan nan nan nan nan nan nan nan
95 102 102 118 126 134 131 125 116 99 69 321 298 308 291 267 293 302 297 280 276 293 nan 305 303 294 nan 287 nan nan nan nan nan 287 nan nan nan nan nan nan nan nan nan nan nan nan nan nan nan nan nan nan 284 286 286 297 nan 298 295 294 nan nan nan nan 284 281 280 284 nan nan 282 nan nan nan nan nan nan nan nan 280 nan nan nan nan nan
69 86 98 95 107 118 121 125 120 154 181 213 243 278 292 270 273 278 267 274 287 292 294 291 282 278 nan 279 nan nan nan nan nan nan nan nan nan nan nan nan nan nan nan nan nan nan nan nan nan nan nan nan nan 286 284 286 297 300 300 300 302 299 299 nan 295 nan 291 287 289 nan nan nan nan nan nan nan nan nan nan nan nan nan nan nan nan
57 64 75 83 84 88 93 97 108 140 186 197 217 254 251 245 234 240 248 260 275 271 272 272 274 281 288 283 nan nan nan nan nan nan nan nan nan nan nan nan nan nan nan nan nan nan nan nan nan nan 274 nan nan 288 288 286 289 298 303 298 297 nan 305 304 nan nan nan 291 292 292 293 nan nan nan nan nan nan nan nan nan nan nan nan nan nan
62 63 62 70 75 82 78 72 82 114 109 282 290 270 260 259 250 253 250 260 264 258 275 293 287 290 301 nan nan nan 282 nan nan nan nan nan nan nan nan nan nan nan 284 nan nan nan nan nan nan nan nan nan nan 281 284 286 290 291 295 303 308 307 309 311 nan nan nan nan 299 nan nan nan nan nan nan nan nan nan nan nan nan nan nan nan nan
71 71 73 77 84 80 78 68 61 56 3 339 302 288 274 268 275 277 278 280 283 287 297 301 307 305 297 294 298 289 286 289 nan nan nan nan nan nan nan nan nan nan 282 nan nan nan nan nan nan nan nan nan nan 282 284 290 285 295 290 294 298 301 307 nan 306 nan nan nan 298 300 nan nan nan nan nan nan nan nan nan nan nan nan nan nan nan
77 78 79 86 86 89 83 78 71 51 42 336 318 301 295 291 284 287 289 291 299 307 302 305 305 298 303 303 299 297 295 296 nan nan nan nan nan nan nan nan nan nan nan nan nan nan nan nan nan nan nan nan nan nan 289 285 293 300 293 290 292 295 298 nan 305 307 nan nan nan nan 296 296 nan nan nan nan nan nan nan nan nan nan nan nan nan
86 75 73 81 87 92 87 92 104 97 56 46 344 312 309 310 316 311 303 308 306 313 309 302 303 300 301 297 302 304 303 303 301 nan nan nan nan nan nan nan nan nan nan nan nan nan nan nan nan nan nan nan nan 296 nan nan nan 298 295 296 293 292 295 296 300 299 304 nan nan nan nan nan nan nan nan nan nan nan nan nan nan nan nan nan nan
75 75 80 87 95 107 117 114 91 88 66 351 331 332 318 317 313 318 324 323 310 303 300 305 307 301 306 308 307 305 307 307 302 295 292 nan nan nan nan nan nan nan nan nan nan nan nan nan nan nan nan nan nan nan 298 nan nan 298 299 301 298 296 295 298 300 300 298 301 309 nan nan nan nan nan nan nan nan nan nan nan nan nan nan nan nan
70 70 73 80 75 64 72 118 82 58 10 348 334 352 335 319 322 319 320 322 320 315 312 315 316 315 318 317 313 313 305 309 296 294 292 288 nan nan nan nan nan 294 nan nan nan nan nan nan nan nan nan nan nan nan nan nan nan nan 293 299 305 308 308 308 312 310 307 307 nan nan nan nan nan nan nan nan nan nan nan nan nan nan nan nan nan